QPF
0.01 0.05 0.08 0.18 0.16 0.12 0.09 0.05 0.03 0.02 0.01 0.01 0.01 0.02 0.04 0.06 0.09 0.16 0.30 0.24 0.13 0.06 0.04 0.05 0.06 0.03 0.02 0.02 0.02 0.03 0.02 0.02 0.03 0.04 0.06 0.08 0.07 0.06 0.07 0.06 0.05 0.04 0.04 0.04 0.05 0.04 0.05 0.05 0.05
0.04 0.15 0.20 0.16 0.18 0.12 0.08 0.05 0.03 0.02 0.01 0.01 0.01 0.03 0.05 0.08 0.11 0.20 0.32 0.26 0.10 0.05 0.04 0.04 0.04 0.03 0.01 0.01 0.01 0.02 0.02 0.02 0.02 0.03 0.05 0.08 0.07 0.07 0.07 0.07 0.06 0.04 0.04 0.04 0.04 0.04 0.05 0.05 0.06
0.09 0.20 0.27 0.19 0.12 0.07 0.07 0.04 0.02 0.01 0.00 0.00 0.01 0.02 0.06 0.12 0.13 0.22 0.30 0.17 0.07 0.05 0.04 0.04 0.03 0.02 0.02 0.02 0.02 0.02 0.02 0.01 0.02 0.04 0.06 0.07 0.08 0.12 0.10 0.07 0.07 0.05 0.05 0.04 0.03 0.04 0.04 0.04 0.05
0.09 0.13 0.17 0.15 0.09 0.05 0.03 0.02 0.01 0.00 0.00 0.00 0.00 0.03 0.09 0.13 0.13 0.18 0.19 0.11 0.08 0.05 0.04 0.04 0.03 0.02 0.02 0.02 0.02 0.02 0.01 0.01 0.03 0.06 0.07 0.06 0.06 0.08 0.10 0.10 0.09 0.06 0.04 0.03 0.02 0.04 0.05 0.04 0.06
0.06 0.14 0.14 0.08 0.07 0.04 0.02 0.01 0.01 0.00 0.00 0.01 0.01 0.04 0.11 0.16 0.15 0.14 0.12 0.11 0.12 0.06 0.05 0.04 0.03 0.02 0.02 0.02 0.02 0.01 0.01 0.02 0.04 0.05 0.07 0.05 0.04 0.05 0.06 0.07 0.05 0.03 0.02 0.02 0.02 0.03 0.04 0.04 0.07
0.11 0.15 0.10 0.04 0.02 0.02 0.02 0.02 0.02 0.00 0.00 0.01 0.01 0.03 0.12 0.19 0.17 0.14 0.10 0.11 0.11 0.06 0.06 0.04 0.04 0.03 0.02 0.02 0.01 0.01 0.01 0.02 0.01 0.01 0.04 0.04 0.03 0.05 0.05 0.05 0.03 0.02 0.02 0.04 0.04 0.03 0.04 0.04 0.05
0.11 0.10 0.05 0.03 0.03 0.03 0.02 0.01 0.01 0.01 0.01 0.01 0.01 0.03 0.08 0.14 0.10 0.08 0.08 0.08 0.08 0.05 0.04 0.04 0.04 0.04 0.03 0.02 0.01 0.01 0.01 0.02 0.01 0.01 0.03 0.03 0.03 0.03 0.04 0.05 0.04 0.02 0.03 0.03 0.03 0.03 0.04 0.03 0.02
0.06 0.10 0.06 0.04 0.03 0.02 0.02 0.01 0.01 0.02 0.03 0.02 0.02 0.03 0.06 0.08 0.05 0.04 0.06 0.07 0.07 0.05 0.04 0.04 0.04 0.03 0.02 0.02 0.02 0.02 0.02 0.02 0.01 0.02 0.03 0.03 0.03 0.03 0.05 0.04 0.03 0.03 0.03 0.03 0.03 0.04 0.04 0.02 0.02
0.06 0.09 0.05 0.05 0.02 0.02 0.02 0.02 0.01 0.01 0.02 0.03 0.03 0.03 0.04 0.06 0.04 0.04 0.06 0.08 0.08 0.05 0.03 0.03 0.04 0.03 0.02 0.02 0.02 0.02 0.02 0.03 0.02 0.03 0.05 0.04 0.02 0.02 0.04 0.04 0.03 0.04 0.05 0.05 0.04 0.04 0.04 0.03 0.03
0.06 0.05 0.05 0.02 0.02 0.03 0.01 0.01 0.01 0.01 0.01 0.04 0.03 0.03 0.04 0.07 0.05 0.04 0.05 0.07 0.07 0.06 0.05 0.05 0.04 0.02 0.02 0.01 0.01 0.01 0.01 0.01 0.02 0.02 0.03 0.01 0.02 0.02 0.04 0.06 0.04 0.04 0.05 0.05 0.05 0.05 0.04 0.03 0.03
0.06 0.04 0.03 0.02 0.01 0.02 0.02 0.02 0.01 0.01 0.03 0.05 0.05 0.04 0.04 0.05 0.05 0.05 0.06 0.12 0.14 0.12 0.07 0.06 0.06 0.03 0.02 0.01 0.01 0.02 0.02 0.02 0.02 0.02 0.02 0.02 0.02 0.03 0.05 0.06 0.04 0.04 0.04 0.04 0.04 0.04 0.04 0.04 0.03
0.03 0.02 0.02 0.02 0.01 0.02 0.02 0.02 0.01 0.01 0.02 0.04 0.05 0.05 0.04 0.04 0.04 0.04 0.05 0.13 0.20 0.18 0.07 0.06 0.04 0.02 0.02 0.01 0.01 0.02 0.02 0.01 0.02 0.03 0.02 0.02 0.02 0.02 0.03 0.04 0.04 0.04 0.03 0.04 0.04 0.04 0.07 0.07 0.04
0.02 0.02 0.01 0.01 0.01 0.01 0.01 0.01 0.01 0.02 0.02 0.02 0.02 0.02 0.03 0.03 0.03 0.05 0.06 0.05 0.08 0.07 0.03 0.02 0.03 0.02 0.02 0.02 0.01 0.02 0.02 0.02 0.02 0.03 0.03 0.02 0.02 0.03 0.04 0.05 0.07 0.05 0.05 0.06 0.06 0.06 0.06 0.08 0.05
0.02 0.02 0.01 0.01 0.01 0.01 0.01 0.01 0.01 0.02 0.02 0.01 0.02 0.02 0.02 0.02 0.02 0.04 0.03 0.03 0.02 0.03 0.02 0.03 0.02 0.02 0.02 0.02 0.03 0.03 0.03 0.03 0.02 0.02 0.02 0.02 0.02 0.03 0.03 0.04 0.05 0.04 0.04 0.04 0.05 0.05 0.06 0.06 0.04
0.02 0.01 0.01 0.01 0.01 0.01 0.01 0.01 0.01 0.02 0.01 0.01 0.01 0.01 0.01 0.01 0.02 0.03 0.02 0.02 0.02 0.02 0.02 0.03 0.02 0.03 0.02 0.02 0.03 0.04 0.06 0.04 0.02 0.01 0.01 0.02 0.02 0.02 0.02 0.02 0.04 0.03 0.03 0.04 0.04 0.05 0.06 0.05 0.04
0.02 0.02 0.02 0.02 0.01 0.01 0.01 0.02 0.02 0.01 0.00 0.00 0.00 0.00 0.00 0.00 0.01 0.02 0.02 0.01 0.01 0.01 0.01 0.01 0.02 0.02 0.02 0.01 0.02 0.02 0.03 0.03 0.02 0.02 0.02 0.02 0.02 0.01 0.02 0.02 0.02 0.03 0.05 0.05 0.05 0.07 0.08 0.05 0.05
0.05 0.05 0.03 0.03 0.01 0.01 0.02 0.01 0.01 0.01 0.01 0.00 0.00 0.00 0.00 0.00 0.00 0.02 0.03 0.01 0.01 0.01 0.01 0.01 0.02 0.02 0.02 0.01 0.01 0.01 0.02 0.02 0.02 0.02 0.02 0.01 0.01 0.01 0.02 0.02 0.02 0.03 0.05 0.06 0.08 0.10 0.09 0.07 0.05
0.05 0.05 0.06 0.04 0.02 0.02 0.02 0.02 0.01 0.01 0.00 0.00 0.00 0.00 0.00 0.00 0.00 0.00 0.02 0.02 0.01 0.01 0.01 0.01 0.01 0.01 0.01 0.01 0.01 0.02 0.02 0.02 0.02 0.01 0.01 0.01 0.01 0.01 0.02 0.04 0.02 0.03 0.04 0.07 0.10 0.13 0.11 0.11 0.07
0.03 0.03 0.05 0.05 0.04 0.02 0.02 0.02 0.02 0.01 0.00 0.00 0.00 0.01 0.01 0.00 0.00 0.00 0.01 0.02 0.02 0.01 0.01 0.01 0.01 0.01 0.01 0.01 0.01 0.01 0.02 0.02 0.02 0.01 0.01 0.01 0.01 0.01 0.02 0.04 0.03 0.03 0.03 0.05 0.07 0.08 0.08 0.09 0.09
0.02 0.02 0.04 0.06 0.05 0.03 0.03 0.02 0.02 0.01 0.01 0.00 0.00 0.01 0.01 0.00 0.01 0.00 0.01 0.02 0.02 0.00 0.00 0.00 0.01 0.00 0.00 0.01 0.01 0.01 0.01 0.01 0.01 0.01 0.01 0.01 0.01 0.01 0.01 0.01 0.03 0.03 0.03 0.03 0.04 0.05 0.07 0.06 0.07
0.01 0.02 0.02 0.04 0.04 0.04 0.04 0.03 0.03 0.03 0.02 0.01 0.00 0.01 0.01 0.00 0.00 0.00 0.00 0.01 0.02 0.01 0.00 0.00 0.00 0.00 0.00 0.01 0.01 0.01 0.01 0.01 0.01 0.01 0.01 0.01 0.01 0.01 0.01 0.01 0.02 0.02 0.02 0.02 0.03 0.04 0.06 0.06 0.07
0.02 0.02 0.02 0.03 0.03 0.04 0.06 0.03 0.03 0.04 0.05 0.01 0.01 0.01 0.01 0.01 0.00 0.00 0.00 0.00 0.01 0.02 0.00 0.00 0.01 0.01 0.01 0.01 0.02 0.03 0.02 0.02 0.02 0.01 0.01 0.01 0.01 0.02 0.01 0.01 0.02 0.01 0.01 0.01 0.02 0.03 0.04 0.04 0.04
0.01 0.01 0.02 0.03 0.03 0.05 0.06 0.04 0.03 0.03 0.03 0.01 0.00 0.01 0.01 0.01 0.01 0.01 0.01 0.01 0.01 0.02 0.02 0.02 0.02 0.01 0.01 0.01 0.01 0.02 0.02 0.02 0.03 0.03 0.02 0.02 0.02 0.02 0.02 0.02 0.02 0.02 0.01 0.00 0.00 0.01 0.02 0.03 0.04
0.01 0.01 0.02 0.02 0.02 0.03 0.03 0.03 0.02 0.03 0.01 0.01 0.00 0.00 0.01 0.02 0.01 0.02 0.02 0.02 0.01 0.02 0.04 0.02 0.02 0.02 0.01 0.01 0.01 0.01 0.02 0.03 0.03 0.03 0.03 0.03 0.03 0.03 0.02 0.01 0.01 0.01 0.01 0.00 0.00 0.01 0.01 0.02 0.02
0.01 0.01 0.02 0.04 0.03 0.02 0.02 0.02 0.02 0.03 0.01 0.01 0.01 0.00 0.01 0.03 0.02 0.05 0.09 0.04 0.03 0.02 0.03 0.03 0.03 0.03 0.02 0.01 0.00 0.01 0.01 0.02 0.02 0.02 0.02 0.02 0.02 0.02 0.01 0.01 0.01 0.01 0.01 0.01 0.01 0.01 0.01 0.01 0.01
0.00 0.01 0.01 0.04 0.04 0.03 0.03 0.04 0.03 0.03 0.01 0.01 0.01 0.01 0.01 0.02 0.01 0.03 0.08 0.02 0.02 0.03 0.04 0.05 0.05 0.05 0.04 0.02 0.01 0.01 0.01 0.01 0.01 0.01 0.01 0.02 0.02 0.02 0.03 0.02 0.03 0.03 0.03 0.02 0.02 0.01 0.02 0.01 0.02
0.00 0.01 0.01 0.02 0.03 0.04 0.02 0.02 0.03 0.02 0.01 0.01 0.01 0.01 0.01 0.00 0.00 0.01 0.01 0.02 0.02 0.03 0.06 0.07 0.07 0.07 0.07 0.05 0.02 0.01 0.01 0.01 0.01 0.01 0.01 0.01 0.02 0.03 0.04 0.04 0.03 0.02 0.03 0.02 0.02 0.02 0.02 0.02 0.03
0.01 0.01 0.02 0.01 0.02 0.04 0.02 0.03 0.03 0.03 0.02 0.02 0.02 0.01 0.01 0.00 0.00 0.01 0.01 0.01 0.02 0.05 0.05 0.02 0.06 0.10 0.13 0.11 0.05 0.03 0.03 0.03 0.03 0.03 0.03 0.02 0.01 0.03 0.04 0.04 0.04 0.04 0.03 0.03 0.03 0.02 0.02 0.03 0.03
0.01 0.01 0.01 0.00 0.01 0.02 0.03 0.02 0.02 0.02 0.03 0.02 0.02 0.02 0.02 0.01 0.01 0.00 0.01 0.01 0.01 0.02 0.03 0.03 0.08 0.09 0.06 0.03 0.02 0.03 0.03 0.05 0.07 0.06 0.03 0.02 0.02 0.03 0.03 0.03 0.04 0.04 0.05 0.05 0.06 0.06 0.04 0.02 0.02
0.01 0.01 0.01 0.00 0.01 0.01 0.01 0.01 0.01 0.01 0.02 0.01 0.02 0.03 0.03 0.02 0.01 0.01 0.00 0.00 0.00 0.01 0.01 0.02 0.04 0.07 0.03 0.02 0.02 0.04 0.04 0.03 0.03 0.03 0.03 0.03 0.03 0.03 0.03 0.02 0.02 0.03 0.04 0.04 0.05 0.05 0.04 0.02 0.01
MSLP
1010.30 1011.21 1012.18 1013.09 1013.78 1014.17 1014.22 1013.96 1013.48 1012.95 1012.52 1012.30 1012.33 1012.59 1012.99 1013.41 1013.70 1013.78 1013.63 1013.27 1012.79 1012.29 1011.86 1011.55 1011.39 1011.32 1011.30 1011.27 1011.19 1011.04 1010.85 1010.62 1010.38 1010.13 1009.85 1009.51 1009.10 1008.62 1008.10 1007.58 1007.11 1006.73 1006.43 1006.16 1005.83 1005.34 1004.63 1003.68 1002.58
1010.65 1011.65 1012.65 1013.49 1014.08 1014.32 1014.20 1013.78 1013.18 1012.55 1012.05 1011.77 1011.77 1012.01 1012.40 1012.81 1013.12 1013.25 1013.17 1012.91 1012.53 1012.14 1011.81 1011.59 1011.49 1011.47 1011.48 1011.46 1011.38 1011.24 1011.05 1010.84 1010.62 1010.41 1010.17 1009.90 1009.55 1009.12 1008.61 1008.08 1007.58 1007.14 1006.80 1006.54 1006.31 1006.05 1005.70 1005.22 1004.66
1011.12 1012.14 1013.08 1013.82 1014.24 1014.32 1014.06 1013.53 1012.85 1012.18 1011.66 1011.37 1011.35 1011.57 1011.94 1012.33 1012.64 1012.79 1012.76 1012.57 1012.30 1012.02 1011.79 1011.66 1011.64 1011.66 1011.70 1011.70 1011.62 1011.49 1011.30 1011.09 1010.89 1010.70 1010.50 1010.27 1009.96 1009.57 1009.09 1008.55 1008.02 1007.54 1007.16 1006.88 1006.69 1006.55 1006.42 1006.26 1006.07
1011.67 1012.63 1013.45 1014.02 1014.27 1014.20 1013.82 1013.23 1012.54 1011.90 1011.42 1011.16 1011.16 1011.36 1011.69 1012.04 1012.32 1012.46 1012.46 1012.33 1012.14 1011.95 1011.82 1011.78 1011.81 1011.88 1011.95 1011.95 1011.89 1011.75 1011.56 1011.35 1011.15 1010.97 1010.79 1010.58 1010.32 1009.96 1009.52 1009.00 1008.47 1007.97 1007.56 1007.26 1007.07 1006.97 1006.93 1006.93 1006.94
1012.24 1013.08 1013.71 1014.08 1014.16 1013.95 1013.51 1012.92 1012.30 1011.75 1011.36 1011.18 1011.21 1011.40 1011.68 1011.97 1012.19 1012.30 1012.29 1012.20 1012.08 1011.97 1011.91 1011.93 1012.02 1012.11 1012.19 1012.20 1012.13 1011.98 1011.79 1011.58 1011.38 1011.20 1011.03 1010.84 1010.61 1010.30 1009.91 1009.44 1008.95 1008.47 1008.06 1007.74 1007.53 1007.43 1007.41 1007.44 1007.52
1012.75 1013.39 1013.80 1013.96 1013.87 1013.57 1013.13 1012.62 1012.12 1011.73 1011.49 1011.41 1011.48 1011.67 1011.89 1012.10 1012.25 1012.31 1012.28 1012.21 1012.12 1012.07 1012.07 1012.13 1012.23 1012.33 1012.40 1012.39 1012.31 1012.16 1011.96 1011.75 1011.55 1011.38 1011.22 1011.06 1010.86 1010.60 1010.28 1009.89 1009.47 1009.05 1008.68 1008.38 1008.17 1008.04 1008.00 1008.01 1008.07
1013.08 1013.50 1013.68 1013.64 1013.42 1013.08 1012.70 1012.32 1012.02 1011.82 1011.75 1011.80 1011.92 1012.09 1012.26 1012.39 1012.46 1012.45 1012.40 1012.33 1012.27 1012.24 1012.27 1012.34 1012.43 1012.51 1012.54 1012.51 1012.41 1012.25 1012.05 1011.86 1011.68 1011.53 1011.39 1011.26 1011.09 1010.89 1010.64 1010.33 1010.01 1009.68 1009.39 1009.14 1008.96 1008.83 1008.76 1008.73 1008.75
1013.17 1013.36 1013.33 1013.13 1012.83 1012.51 1012.23 1012.03 1011.95 1011.97 1012.08 1012.24 1012.42 1012.58 1012.69 1012.74 1012.73 1012.67 1012.59 1012.52 1012.48 1012.48 1012.51 1012.57 1012.63 1012.66 1012.63 1012.55 1012.43 1012.26 1012.09 1011.92 1011.78 1011.66 1011.56 1011.46 1011.34 1011.18 1010.99 1010.77 1010.53 1010.30 1010.10 1009.94 1009.81 1009.72 1009.66 1009.62 1009.60
1013.00 1012.99 1012.79 1012.48 1012.16 1011.90 1011.76 1011.77 1011.90 1012.13 1012.41 1012.68 1012.90 1013.03 1013.09 1013.07 1013.00 1012.90 1012.81 1012.75 1012.73 1012.74 1012.77 1012.79 1012.80 1012.76 1012.67 1012.55 1012.39 1012.23 1012.08 1011.96 1011.86 1011.80 1011.74 1011.68 1011.59 1011.48 1011.34 1011.17 1011.01 1010.86 1010.75 1010.66 1010.61 1010.59 1010.57 1010.55 1010.54
1012.63 1012.47 1012.16 1011.80 1011.51 1011.34 1011.36 1011.55 1011.88 1012.28 1012.69 1013.03 1013.27 1013.38 1013.39 1013.32 1013.21 1013.09 1013.01 1012.97 1012.97 1013.00 1013.02 1013.01 1012.95 1012.85 1012.70 1012.52 1012.34 1012.18 1012.06 1011.99 1011.97 1011.96 1011.96 1011.94 1011.88 1011.79 1011.66 1011.53 1011.40 1011.31 1011.25 1011.24 1011.27 1011.31 1011.36 1011.41 1011.44
1012.18 1011.93 1011.57 1011.22 1010.98 1010.94 1011.10 1011.45 1011.92 1012.43 1012.91 1013.28 1013.51 1013.59 1013.56 1013.45 1013.33 1013.22 1013.17 1013.17 1013.20 1013.24 1013.25 1013.21 1013.10 1012.93 1012.72 1012.50 1012.30 1012.16 1012.07 1012.06 1012.09 1012.15 1012.20 1012.22 1012.18 1012.09 1011.97 1011.84 1011.72 1011.64 1011.61 1011.64 1011.72 1011.84 1011.96 1012.08 1012.18
1011.79 1011.52 1011.17 1010.87 1010.72 1010.77 1011.04 1011.49 1012.04 1012.60 1013.09 1013.44 1013.63 1013.67 1013.60 1013.49 1013.37 1013.29 1013.28 1013.32 1013.39 1013.45 1013.46 1013.39 1013.24 1013.03 1012.77 1012.53 1012.32 1012.18 1012.13 1012.16 1012.25 1012.36 1012.45 1012.49 1012.48 1012.40 1012.27 1012.11 1011.98 1011.88 1011.85 1011.90 1012.01 1012.16 1012.35 1012.54 1012.72
1011.63 1011.38 1011.08 1010.85 1010.78 1010.91 1011.24 1011.72 1012.28 1012.81 1013.25 1013.54 1013.67 1013.67 1013.58 1013.47 1013.37 1013.33 1013.36 1013.45 1013.54 1013.61 1013.62 1013.54 1013.37 1013.13 1012.86 1012.60 1012.40 1012.28 1012.25 1012.30 1012.42 1012.56 1012.68 1012.75 1012.75 1012.67 1012.54 1012.39 1012.23 1012.11 1012.07 1012.09 1012.20 1012.38 1012.59 1012.84 1013.07
1011.78 1011.59 1011.36 1011.22 1011.22 1011.39 1011.72 1012.17 1012.65 1013.09 1013.42 1013.62 1013.68 1013.64 1013.54 1013.44 1013.38 1013.38 1013.45 1013.55 1013.67 1013.74 1013.74 1013.66 1013.48 1013.25 1012.99 1012.74 1012.55 1012.45 1012.43 1012.49 1012.61 1012.75 1012.88 1012.96 1012.98 1012.93 1012.82 1012.67 1012.52 1012.40 1012.34 1012.34 1012.43 1012.59 1012.81 1013.07 1013.34
1012.26 1012.15 1012.01 1011.93 1011.98 1012.15 1012.44 1012.79 1013.14 1013.44 1013.64 1013.72 1013.72 1013.64 1013.54 1013.47 1013.44 1013.47 1013.56 1013.67 1013.77 1013.83 1013.82 1013.73 1013.58 1013.37 1013.15 1012.95 1012.79 1012.70 1012.68 1012.72 1012.82 1012.93 1013.04 1013.12 1013.16 1013.14 1013.08 1012.98 1012.88 1012.78 1012.72 1012.71 1012.78 1012.91 1013.11 1013.35 1013.61
1012.99 1012.96 1012.91 1012.91 1012.98 1013.12 1013.32 1013.53 1013.72 1013.84 1013.88 1013.85 1013.78 1013.68 1013.61 1013.57 1013.58 1013.64 1013.72 1013.81 1013.88 1013.89 1013.86 1013.77 1013.64 1013.48 1013.33 1013.19 1013.09 1013.02 1012.99 1013.01 1013.05 1013.11 1013.18 1013.24 1013.29 1013.32 1013.33 1013.31 1013.28 1013.24 1013.22 1013.22 1013.27 1013.37 1013.53 1013.74 1013.97
1013.83 1013.90 1013.95 1014.02 1014.10 1014.20 1014.28 1014.32 1014.31 1014.24 1014.12 1013.99 1013.86 1013.77 1013.73 1013.74 1013.79 1013.87 1013.94 1013.99 1013.99 1013.95 1013.88 1013.78 1013.69 1013.60 1013.53 1013.48 1013.45 1013.41 1013.39 1013.35 1013.33 1013.31 1013.31 1013.34 1013.39 1013.47 1013.55 1013.63 1013.70 1013.75 1013.78 1013.82 1013.86 1013.94 1014.05 1014.21 1014.41
1014.61 1014.80 1014.97 1015.11 1015.22 1015.27 1015.23 1015.10 1014.89 1014.62 1014.34 1014.10 1013.93 1013.85 1013.86 1013.94 1014.05 1014.15 1014.21 1014.20 1014.13 1014.03 1013.90 1013.80 1013.73 1013.72 1013.75 1013.80 1013.85 1013.88 1013.85 1013.78 1013.67 1013.57 1013.48 1013.45 1013.48 1013.59 1013.73 1013.91 1014.08 1014.22 1014.33 1014.40 1014.46 1014.51 1014.59 1014.71 1014.85
1015.21 1015.55 1015.86 1016.11 1016.26 1016.27 1016.12 1015.82 1015.40 1014.93 1014.50 1014.15 1013.95 1013.89 1013.97 1014.12 1014.30 1014.43 1014.48 1014.43 1014.30 1014.12 1013.95 1013.83 1013.80 1013.86 1013.99 1014.15 1014.30 1014.38 1014.37 1014.27 1014.09 1013.89 1013.72 1013.61 1013.59 1013.69 1013.87 1014.11 1014.36 1014.58 1014.75 1014.87 1014.93 1014.98 1015.03 1015.10 1015.22
1015.54 1016.06 1016.56 1016.96 1017.18 1017.18 1016.93 1016.46 1015.84 1015.17 1014.56 1014.11 1013.86 1013.83 1013.97 1014.22 1014.48 1014.67 1014.74 1014.67 1014.49 1014.26 1014.04 1013.90 1013.89 1014.01 1014.23 1014.50 1014.74 1014.89 1014.92 1014.80 1014.57 1014.29 1014.02 1013.82 1013.74 1013.80 1013.97 1014.23 1014.52 1014.79 1015.00 1015.14 1015.21 1015.24 1015.27 1015.32 1015.42
1015.58 1016.34 1017.07 1017.65 1017.98 1017.99 1017.66 1017.03 1016.21 1015.33 1014.54 1013.96 1013.65 1013.62 1013.83 1014.17 1014.53 1014.81 1014.93 1014.88 1014.69 1014.42 1014.16 1014.01 1014.00 1014.16 1014.46 1014.81 1015.14 1015.36 1015.43 1015.32 1015.07 1014.72 1014.38 1014.09 1013.93 1013.93 1014.06 1014.29 1014.58 1014.84 1015.05 1015.19 1015.26 1015.27 1015.28 1015.32 1015.41
1015.41 1016.44 1017.42 1018.22 1018.68 1018.72 1018.33 1017.55 1016.53 1015.43 1014.44 1013.70 1013.30 1013.26 1013.51 1013.94 1014.42 1014.80 1015.01 1015.02 1014.84 1014.57 1014.30 1014.12 1014.11 1014.29 1014.62 1015.03 1015.43 1015.72 1015.84 1015.76 1015.51 1015.14 1014.74 1014.40 1014.16 1014.08 1014.15 1014.33 1014.56 1014.79 1014.97 1015.08 1015.12 1015.12 1015.11 1015.14 1015.23
1015.12 1016.43 1017.69 1018.71 1019.32 1019.41 1018.96 1018.05 1016.83 1015.50 1014.29 1013.37 1012.85 1012.76 1013.03 1013.54 1014.12 1014.63 1014.95 1015.04 1014.92 1014.68 1014.41 1014.22 1014.19 1014.36 1014.69 1015.12 1015.56 1015.90 1016.08 1016.05 1015.83 1015.48 1015.07 1014.69 1014.41 1014.26 1014.26 1014.36 1014.53 1014.70 1014.83 1014.89 1014.90 1014.88 1014.85 1014.88 1014.96
1014.82 1016.39 1017.90 1019.13 1019.88 1020.03 1019.54 1018.50 1017.09 1015.55 1014.12 1013.02 1012.36 1012.19 1012.45 1013.00 1013.67 1014.29 1014.73 1014.93 1014.90 1014.70 1014.44 1014.24 1014.18 1014.32 1014.63 1015.05 1015.50 1015.88 1016.10 1016.13 1015.97 1015.67 1015.29 1014.92 1014.62 1014.44 1014.39 1014.43 1014.53 1014.64 1014.71 1014.73 1014.71 1014.66 1014.62 1014.64 1014.72
1014.56 1016.35 1018.08 1019.49 1020.36 1020.55 1020.03 1018.90 1017.34 1015.62 1013.99 1012.71 1011.91 1011.63 1011.84 1012.40 1013.12 1013.83 1014.38 1014.68 1014.73 1014.60 1014.37 1014.16 1014.07 1014.16 1014.42 1014.81 1015.24 1015.62 1015.89 1015.98 1015.90 1015.67 1015.36 1015.04 1014.77 1014.59 1014.51 1014.52 1014.57 1014.64 1014.67 1014.66 1014.62 1014.55 1014.50 1014.50 1014.57
1014.38 1016.33 1018.21 1019.74 1020.69 1020.92 1020.40 1019.21 1017.56 1015.71 1013.94 1012.51 1011.57 1011.19 1011.32 1011.84 1012.57 1013.32 1013.93 1014.32 1014.45 1014.37 1014.17 1013.97 1013.85 1013.89 1014.09 1014.42 1014.81 1015.19 1015.47 1015.62 1015.61 1015.47 1015.25 1015.01 1014.80 1014.65 1014.59 1014.59 1014.64 1014.68 1014.70 1014.68 1014.63 1014.56 1014.50 1014.48 1014.53
1014.28 1016.30 1018.24 1019.84 1020.84 1021.10 1020.60 1019.41 1017.74 1015.84 1014.01 1012.49 1011.45 1010.96 1011.00 1011.44 1012.12 1012.86 1013.48 1013.90 1014.08 1014.05 1013.88 1013.68 1013.55 1013.54 1013.68 1013.95 1014.29 1014.64 1014.93 1015.11 1015.16 1015.11 1014.98 1014.82 1014.68 1014.59 1014.57 1014.60 1014.66 1014.71 1014.74 1014.73 1014.69 1014.62 1014.57 1014.53 1014.55
1014.24 1016.25 1018.18 1019.76 1020.77 1021.06 1020.61 1019.49 1017.89 1016.04 1014.24 1012.71 1011.62 1011.05 1010.98 1011.31 1011.89 1012.54 1013.11 1013.51 1013.70 1013.69 1013.55 1013.36 1013.22 1013.18 1013.28 1013.49 1013.78 1014.08 1014.35 1014.54 1014.62 1014.62 1014.56 1014.48 1014.41 1014.39 1014.41 1014.48 1014.57 1014.65 1014.71 1014.72 1014.70 1014.64 1014.58 1014.54 1014.53
1014.26 1016.17 1018.01 1019.52 1020.49 1020.82 1020.45 1019.47 1018.02 1016.34 1014.66 1013.21 1012.14 1011.52 1011.35 1011.54 1011.96 1012.47 1012.93 1013.26 1013.40 1013.39 1013.26 1013.09 1012.95 1012.90 1012.97 1013.13 1013.36 1013.61 1013.83 1013.99 1014.08 1014.09 1014.06 1014.02 1014.00 1014.02 1014.08 1014.18 1014.30 1014.41 1014.49 1014.53 1014.53 1014.49 1014.43 1014.38 1014.34
1014.35 1016.10 1017.78 1019.16 1020.08 1020.43 1020.17 1019.37 1018.16 1016.72 1015.27 1013.98 1012.99 1012.37 1012.11 1012.15 1012.40 1012.72 1013.02 1013.22 1013.28 1013.23 1013.09 1012.94 1012.82 1012.77 1012.82 1012.94 1013.11 1013.30 1013.46 1013.56 1013.60 1013.59 1013.54 1013.50 1013.49 1013.52 1013.60 1013.72 1013.85 1013.98 1014.08 1014.13 1014.14 1014.10 1014.04 1013.97 1013.91
Thickness
5822 5819 5815 5804 5785 5768 5767 5782 5794 5796 5796 5802 5804 5798 5787 5779 5772 5763 5783 5792 5791 5790 5790 5789 5789 5789 5789 5789 5789 5789 5789 5788 5788 5787 5787 5785 5784 5783 5782 5781 5780 5779 5778 5777 5776 5775 5773 5772 5772
5824 5821 5810 5795 5773 5755 5766 5788 5793 5798 5802 5807 5804 5797 5788 5782 5786 5783 5785 5789 5791 5789 5788 5788 5788 5788 5788 5788 5788 5788 5787 5787 5787 5786 5785 5784 5783 5782 5781 5780 5779 5778 5777 5776 5775 5774 5773 5771 5770
5827 5822 5803 5786 5772 5765 5775 5794 5799 5805 5811 5809 5799 5796 5788 5782 5786 5786 5789 5791 5790 5788 5787 5787 5787 5787 5787 5787 5787 5787 5786 5786 5785 5785 5784 5783 5782 5781 5780 5779 5777 5777 5776 5775 5774 5773 5772 5771 5770
5825 5812 5800 5782 5775 5789 5796 5801 5807 5804 5806 5807 5800 5788 5788 5794 5792 5791 5792 5790 5788 5787 5786 5786 5786 5786 5786 5786 5786 5786 5785 5784 5784 5783 5782 5781 5780 5780 5779 5778 5776 5776 5775 5774 5773 5772 5771 5770 5769
5822 5804 5785 5775 5783 5800 5811 5814 5814 5804 5799 5799 5796 5782 5780 5792 5796 5794 5792 5790 5787 5786 5786 5785 5785 5785 5785 5785 5784 5784 5784 5783 5782 5781 5780 5780 5779 5778 5778 5777 5776 5775 5774 5773 5773 5772 5771 5770 5769
5810 5798 5777 5770 5787 5804 5812 5818 5814 5804 5798 5798 5793 5782 5779 5792 5792 5792 5792 5790 5789 5787 5785 5784 5784 5784 5784 5784 5783 5783 5783 5782 5781 5780 5779 5779 5778 5778 5777 5776 5775 5774 5774 5773 5772 5772 5771 5770 5769
5804 5792 5781 5785 5791 5799 5810 5820 5812 5803 5798 5799 5799 5782 5780 5787 5793 5794 5793 5790 5788 5787 5785 5784 5784 5784 5784 5783 5782 5782 5782 5781 5781 5780 5779 5778 5777 5776 5776 5775 5775 5774 5774 5773 5772 5771 5771 5770 5769
5818 5798 5788 5791 5793 5797 5815 5820 5817 5810 5802 5809 5805 5785 5779 5788 5795 5794 5791 5789 5787 5786 5785 5784 5783 5783 5783 5782 5782 5782 5781 5780 5780 5779 5779 5778 5777 5775 5775 5775 5775 5774 5774 5773 5772 5771 5770 5769 5769
5827 5794 5784 5795 5798 5802 5817 5815 5816 5821 5811 5809 5808 5800 5797 5798 5796 5791 5787 5785 5784 5784 5784 5785 5784 5783 5783 5782 5782 5781 5780 5780 5779 5779 5778 5777 5776 5775 5775 5774 5774 5774 5773 5773 5772 5771 5771 5769 5769
5817 5792 5803 5821 5821 5816 5819 5816 5815 5809 5802 5798 5799 5801 5802 5799 5794 5788 5784 5782 5781 5782 5784 5785 5784 5784 5783 5783 5782 5781 5780 5779 5779 5779 5778 5777 5776 5775 5775 5774 5774 5774 5773 5773 5772 5772 5771 5770 5768
5823 5811 5824 5832 5834 5831 5821 5817 5819 5806 5793 5797 5796 5796 5797 5796 5792 5788 5786 5785 5784 5785 5786 5786 5786 5785 5783 5783 5782 5781 5780 5779 5779 5778 5778 5777 5776 5775 5775 5775 5774 5774 5773 5773 5772 5771 5770 5769 5768
5827 5831 5837 5836 5840 5833 5824 5820 5814 5810 5805 5811 5810 5806 5800 5794 5791 5790 5788 5787 5787 5787 5787 5788 5788 5785 5784 5783 5782 5781 5780 5780 5779 5778 5778 5777 5776 5775 5775 5775 5775 5774 5773 5773 5772 5771 5770 5769 5768
5830 5833 5841 5843 5841 5837 5831 5821 5816 5812 5817 5817 5813 5807 5801 5797 5795 5795 5794 5792 5790 5788 5789 5789 5789 5787 5785 5784 5783 5782 5782 5781 5781 5780 5779 5778 5777 5776 5776 5775 5775 5774 5773 5772 5771 5770 5770 5769 5768
5835 5837 5839 5840 5837 5836 5827 5821 5817 5812 5819 5814 5809 5804 5802 5800 5798 5796 5795 5793 5792 5791 5791 5791 5790 5789 5787 5785 5784 5784 5783 5782 5782 5781 5780 5779 5779 5778 5777 5776 5775 5775 5774 5773 5772 5771 5770 5769 5768
5842 5829 5830 5835 5834 5832 5826 5808 5812 5819 5820 5812 5808 5806 5804 5803 5801 5799 5798 5796 5795 5794 5794 5793 5792 5791 5789 5787 5786 5785 5785 5784 5783 5782 5782 5781 5780 5779 5778 5777 5776 5776 5775 5774 5773 5772 5770 5769 5768
5830 5815 5805 5825 5833 5831 5817 5789 5812 5823 5818 5809 5808 5807 5805 5803 5804 5803 5802 5800 5799 5798 5796 5795 5796 5792 5790 5789 5788 5786 5786 5785 5784 5784 5783 5782 5782 5781 5779 5778 5777 5777 5776 5775 5773 5771 5769 5768 5767
5806 5795 5797 5815 5833 5831 5816 5797 5813 5822 5818 5810 5809 5808 5806 5803 5804 5805 5805 5804 5802 5800 5798 5797 5796 5794 5792 5790 5789 5788 5787 5786 5786 5785 5785 5784 5783 5782 5781 5780 5779 5778 5776 5775 5774 5771 5769 5766 5765
5791 5794 5799 5805 5825 5826 5813 5808 5816 5821 5819 5812 5810 5809 5807 5804 5805 5807 5807 5806 5804 5803 5801 5799 5797 5796 5794 5792 5790 5788 5787 5787 5787 5786 5786 5786 5785 5784 5783 5781 5780 5779 5776 5774 5773 5771 5769 5767 5765
5813 5804 5800 5811 5829 5821 5812 5809 5815 5820 5818 5813 5810 5808 5807 5807 5810 5810 5810 5808 5805 5803 5801 5799 5797 5796 5795 5791 5788 5786 5785 5786 5787 5788 5788 5787 5786 5785 5784 5782 5781 5779 5777 5775 5773 5771 5768 5766 5765
5816 5804 5803 5813 5829 5820 5809 5809 5818 5822 5822 5821 5816 5812 5811 5808 5808 5809 5809 5808 5806 5803 5802 5800 5798 5797 5796 5794 5793 5791 5789 5788 5788 5789 5789 5788 5787 5786 5785 5783 5781 5779 5777 5775 5773 5771 5767 5765 5765
5814 5807 5807 5808 5819 5821 5809 5799 5809 5820 5825 5825 5823 5819 5817 5816 5811 5810 5809 5808 5807 5805 5804 5803 5800 5799 5798 5797 5795 5793 5790 5788 5787 5787 5787 5789 5788 5787 5786 5784 5782 5780 5778 5774 5773 5771 5767 5763 5763
5806 5827 5825 5817 5802 5789 5800 5773 5798 5811 5815 5820 5820 5819 5818 5820 5817 5814 5812 5810 5809 5808 5808 5805 5803 5801 5800 5798 5795 5791 5787 5784 5785 5786 5787 5788 5788 5787 5786 5784 5783 5780 5778 5775 5774 5772 5769 5765 5761
5822 5837 5829 5819 5801 5788 5794 5778 5789 5808 5806 5815 5822 5824 5824 5824 5822 5818 5816 5815 5814 5812 5809 5807 5804 5802 5800 5799 5796 5793 5789 5788 5787 5787 5787 5787 5787 5787 5786 5784 5783 5780 5778 5776 5774 5772 5770 5767 5763
5838 5828 5816 5804 5788 5768 5786 5779 5781 5801 5813 5821 5826 5830 5829 5828 5825 5822 5821 5819 5815 5814 5810 5807 5804 5802 5801 5799 5797 5794 5791 5789 5786 5785 5784 5784 5785 5785 5785 5784 5782 5781 5779 5776 5774 5772 5770 5768 5765
5827 5796 5769 5763 5755 5762 5790 5786 5790 5820 5833 5834 5833 5833 5832 5831 5827 5823 5820 5818 5815 5813 5811 5808 5804 5801 5800 5799 5798 5796 5794 5791 5788 5786 5785 5784 5783 5783 5784 5784 5782 5780 5779 5777 5775 5772 5770 5768 5765
5817 5800 5766 5752 5749 5762 5785 5782 5805 5836 5843 5845 5843 5840 5836 5831 5829 5827 5825 5822 5819 5816 5813 5809 5805 5802 5800 5798 5797 5797 5795 5793 5791 5789 5788 5786 5785 5785 5785 5784 5782 5781 5779 5777 5774 5772 5769 5768 5766
5813 5801 5800 5773 5765 5759 5771 5791 5814 5834 5835 5837 5837 5835 5833 5834 5832 5831 5828 5825 5822 5818 5815 5812 5807 5803 5801 5801 5798 5797 5796 5794 5792 5791 5789 5788 5787 5786 5784 5783 5781 5780 5778 5776 5773 5770 5768 5767 5764
5830 5815 5788 5770 5752 5746 5765 5778 5787 5812 5818 5827 5830 5830 5832 5835 5834 5833 5831 5828 5825 5822 5818 5815 5811 5807 5804 5801 5800 5798 5796 5794 5792 5791 5788 5787 5786 5786 5784 5782 5780 5778 5777 5774 5772 5769 5767 5765 5763
5815 5808 5791 5773 5768 5749 5746 5768 5815 5818 5825 5826 5830 5833 5834 5835 5835 5834 5833 5831 5828 5824 5819 5815 5811 5808 5804 5802 5800 5798 5796 5794 5792 5789 5788 5787 5786 5784 5782 5781 5778 5776 5774 5772 5770 5767 5765 5762 5760
5821 5810 5793 5773 5766 5761 5754 5772 5829 5829 5831 5832 5832 5835 5837 5837 5836 5834 5832 5830 5826 5822 5819 5815 5812 5809 5807 5805 5802 5799 5796 5794 5791 5789 5787 5786 5784 5782 5781 5779 5777 5775 5773 5771 5768 5765 5763 5760 5758